Weather History for Corlu, Turkey

Change the Weather History Date:

Thursday, April 11, 2013

  Actual Average (LTBA) Record (LTBA)
Temperature  
Mean Temperature 52 °F -  
Max Temperature 62 °F 60 °F 78 °F (1998)
Min Temperature 42 °F 46 °F 41 °F (1997)
Degree Days  
Heating Degree Days 13    
Growing Degree Days 2 (Base 50)    
Moisture  
Dew Point 49 °F    
Average Humidity 90    
Maximum Humidity 100    
Minimum Humidity 63    
Precipitation  
Precipitation 0.00 in - - ()
Sea Level Pressure  
Sea Level Pressure 29.97 in    
Wind  
Wind Speed 4 mph ()    
Max Wind Speed 12 mph    
Max Gust Speed -    
Visibility 3.1 miles    
Events Fog , Rain    
Averages and records for this station are not official NWS values.
T = Trace of Precipitation, MM = Missing Value Source: Averaged Metar Reports

Daily Weather History Graph

Daily Weather History Graph

Search for Another Location

Airport:

Trip Planner

Search our weather history database for the weather conditions in past years. The results will help you decide how hot, cold, wet, or windy it might be!

Date:

Astronomy

Apr. 11, 2013 Rise Set
Actual Time 6:35 AM EEST 7:43 PM EEST
Civil Twilight 6:07 AM EEST 8:12 PM EEST
Nautical Twilight 5:33 AM EEST 8:46 PM EEST
Astronomical Twilight 4:57 AM EEST 9:21 PM EEST
Moon 6:54 AM EEST (4/11) 9:00 PM EEST (4/11)
Length of Visible Light 14h 05m
Length of Day
13h 08m
New Moon, 1% of the Moon is Illuminated
Apr 11
New Moon
Apr 18
First Quarter
Apr 25
Full
May 2
Last Quarter
May 10
New

Hourly Weather History & Observations

Time (EEST) Temp. Windchill Dew Point Humidity Pressure Visibility Wind Dir Wind Speed Gust Speed Precip Events Conditions
12:20 AM 46.4 °F - 46.4 °F 100% 29.95 in 2.5 mi Calm Calm - N/A   Mostly Cloudy
12:50 AM 46.4 °F - 46.4 °F 100% 29.95 in 1.9 mi Variable 1.2 mph - N/A   Mostly Cloudy
1:20 AM 46.4 °F - 46.4 °F 100% 29.95 in 1.9 mi Variable 1.2 mph - N/A   Mostly Cloudy
1:50 AM 44.6 °F - 44.6 °F 100% 29.95 in 1.0 mi Calm Calm - N/A   Mostly Cloudy
2:15 AM 46.4 °F - 44.6 °F 93% 29.92 in 0.6 mi Calm Calm - N/A Fog Patches of Fog
2:20 AM 44.6 °F - 44.6 °F 100% 29.92 in 0.3 mi Calm Calm - N/A Fog Fog
3:20 AM 44.6 °F - 44.6 °F 100% 29.92 in 0.3 mi Calm Calm - N/A Fog Fog
3:26 AM 44.6 °F - 44.6 °F 100% 29.92 in 0.7 mi Calm Calm - N/A Fog Patches of Fog
3:50 AM 44.6 °F - 44.6 °F 100% 29.92 in 1.2 mi Calm Calm - N/A   Scattered Clouds
4:20 AM 44.6 °F - 44.6 °F 100% 29.92 in 1.2 mi South 2.3 mph - N/A   Scattered Clouds
4:50 AM 44.6 °F 43.1 °F 44.6 °F 100% 29.92 in 1.1 mi South 3.5 mph - N/A   Scattered Clouds
5:20 AM 42.8 °F 41.1 °F 42.8 °F 100% 29.92 in 1.0 mi WNW 3.5 mph - N/A   Scattered Clouds
5:50 AM 46.4 °F - 46.4 °F 100% 29.92 in 1.6 mi Calm Calm - N/A   Scattered Clouds
6:20 AM 44.6 °F - 44.6 °F 100% 29.92 in 1.2 mi Calm Calm - N/A   Mostly Cloudy
6:50 AM 46.4 °F - 46.4 °F 100% 29.92 in 1.2 mi Variable 1.2 mph - N/A   Mostly Cloudy
7:20 AM 48.2 °F - 48.2 °F 100% 29.92 in 1.2 mi South 3.5 mph - N/A   Mostly Cloudy
7:50 AM 48.2 °F - 48.2 °F 100% 29.92 in 1.6 mi SSW 3.5 mph - N/A   Mostly Cloudy
8:20 AM 50.0 °F - 50.0 °F 100% 29.92 in 1.4 mi Variable 2.3 mph - N/A   Mostly Cloudy
8:50 AM 51.8 °F - 51.8 °F 100% 29.92 in 1.9 mi SW 5.8 mph - N/A   Mostly Cloudy
9:20 AM 51.8 °F - 51.8 °F 100% 29.95 in 1.9 mi WSW 9.2 mph - N/A   Mostly Cloudy
9:50 AM 51.8 °F - 51.8 °F 100% 29.95 in 1.9 mi West 8.1 mph - N/A   Mostly Cloudy
10:20 AM 53.6 °F - 51.8 °F 94% 29.95 in 2.2 mi West 6.9 mph - N/A   Mostly Cloudy
10:50 AM 55.4 °F - 51.8 °F 88% 29.98 in 2.5 mi WNW 8.1 mph - N/A   Mostly Cloudy
11:20 AM 55.4 °F - 50.0 °F 82% 29.98 in 3.7 mi WNW 9.2 mph - N/A   Mostly Cloudy
11:50 AM 57.2 °F - 51.8 °F 82% 29.98 in 3.7 mi NW 9.2 mph - N/A   Mostly Cloudy
12:20 PM 59.0 °F - 50.0 °F 72% 29.98 in 3.7 mi WNW 9.2 mph - N/A   Mostly Cloudy
12:50 PM 59.0 °F - 50.0 °F 72% 29.98 in 3.7 mi NW 8.1 mph - N/A   Mostly Cloudy
1:20 PM 59.0 °F - 50.0 °F 72% 29.98 in 3.7 mi NNW 9.2 mph - N/A   Mostly Cloudy
1:50 PM 60.8 °F - 50.0 °F 68% 29.98 in 4.3 mi Variable 5.8 mph - N/A   Mostly Cloudy
2:20 PM 59.0 °F - 50.0 °F 72% 29.98 in 4.3 mi ENE 6.9 mph - N/A   Mostly Cloudy
2:50 PM 62.6 °F - 51.8 °F 68% 29.98 in 4.3 mi Variable 2.3 mph - N/A   Mostly Cloudy
3:20 PM 60.8 °F - 48.2 °F 63% 29.98 in 4.3 mi Variable 3.5 mph - N/A   Mostly Cloudy
3:50 PM 60.8 °F - 51.8 °F 72% 29.98 in 5.0 mi SE 5.8 mph - N/A   Scattered Clouds
4:20 PM 59.0 °F - 51.8 °F 77% 29.98 in 5.0 mi SE 8.1 mph - N/A   Scattered Clouds
4:30 PM 59.0 °F - 53.6 °F 82% 29.98 in 5.0 mi SSE 9.2 mph - N/A Rain Light Rain Showers
4:46 PM 57.2 °F - 51.8 °F 82% 29.98 in 5.0 mi SE 10.4 mph - N/A   Scattered Clouds
4:50 PM 57.2 °F - 51.8 °F 82% 29.98 in 5.0 mi SE 10.4 mph - N/A   Scattered Clouds
5:20 PM 59.0 °F - 51.8 °F 77% 29.98 in 5.0 mi SE 10.4 mph - N/A   Scattered Clouds
5:50 PM 57.2 °F - 50.0 °F 77% 29.98 in 5.0 mi SE 10.4 mph - N/A   Scattered Clouds
6:20 PM 57.2 °F - 50.0 °F 77% 29.98 in 5.0 mi SE 11.5 mph - N/A   Scattered Clouds
6:50 PM 55.4 °F - 50.0 °F 82% 29.98 in 5.0 mi SE 9.2 mph - N/A   Scattered Clouds
7:20 PM 53.6 °F - 50.0 °F 88% 29.98 in 5.0 mi SE 6.9 mph - N/A   Scattered Clouds
7:50 PM 51.8 °F - 50.0 °F 94% 30.01 in 3.7 mi SSE 5.8 mph - N/A   Scattered Clouds
8:20 PM 51.8 °F - 50.0 °F 94% 30.01 in 3.1 mi SE 5.8 mph - N/A   Scattered Clouds
8:50 PM 50.0 °F - 50.0 °F 100% 30.04 in 3.7 mi East 6.9 mph - N/A   Scattered Clouds
9:20 PM 50.0 °F - 50.0 °F 100% 30.04 in 3.7 mi East 5.8 mph - N/A   Scattered Clouds
9:50 PM 50.0 °F - 48.2 °F 94% 30.04 in 3.7 mi East 5.8 mph - N/A   Scattered Clouds
10:20 PM 48.2 °F - 46.4 °F 93% 30.06 in 5.0 mi ENE 8.1 mph - N/A   Scattered Clouds
10:50 PM 48.2 °F - 46.4 °F 93% 30.06 in 5.0 mi ENE 6.9 mph - N/A   Scattered Clouds
11:20 PM 48.2 °F - 46.4 °F 93% 30.06 in 5.0 mi Variable 2.3 mph - N/A   Mostly Cloudy
11:50 PM 48.2 °F - 46.4 °F 93% 30.06 in 5.0 mi East 5.8 mph - N/A   Scattered Clouds